Вернуться в каталог

DELTA 1 R/B

АктивенHEO
NORAD 4377·ROCKET BODY·🇺🇸 United States

Запущен Apr 23, 1970 с Cape Canaveral Space Force Station

Loading…

Ближайшие Пролёты (ближайшие 24 часа)

TLE

СвежийSource: Space-Track

Эпоха: Sep 14, 2026, 11:14 UTC

1 04377U 70032B   26257.46808917  .00012077  00000-0  12249-2 0  9995
2 04377  26.7142 314.3989 5680527  81.2734 335.8542  4.56229346637704

Отслеживайте DELTA 1 R/B в реальном времени с AllMySat

Download on the App Store